Location: Bats
(43.6587°N, 0.4584°W)
Time: 20:35:04
(UTC+00:00)

Cosmos 332 Rocket - Pass Details

Date: 12 January 2026
Orbit: 672 x 693 km, 74.0° (Epoch: 13 February)

Event Time Altitude Azimuth Distance (km) Brightness Sun altitude
Rises 18:56:50 0° 335° (NNW) 3,038 7.3 -22.9°
Reaches altitude 10° 18:59:09 10° 332° (NNW) 2,122 6.5 -23.3°
Maximum altitude 19:03:50 57° 254° (WSW) 798 4.3 -24.2°
Drops below altitude 10° 19:08:30 10° 176° (S) 2,119 6.3 -25.0°
Sets 19:10:50 0° 172° (S) 3,033 7.1 -25.4°
